Regional Weather Roundup
Issued by NWS

Home | Current Version | Previous Version | Text Only | Print | Product List | Glossary Off
Versions: 1 2 3 4 5 6 7 8 9 10 11 12 13 14 15 16 17 18 19 20 21 22 23 24 25 26 27 28 29 30 31 32 33 34 35 36 37 38 39 40 41 42 43 44 45 46 47 48 49 50

000
ASUS45 KBOU 301407
RWRCO

WEATHER ROUNDUP FOR COLORADO
NATIONAL WEATHER SERVICE DENVER/BOULDER CO
800 AM MDT SAT AUG 30 2014

NOTE: "FAIR" INDICATES FEW OR NO CLOUDS BELOW 12000 FEET WITH NO
SIGNIFICANT WEATHER AND/OR OBSTRUCTIONS TO VISIBILITY.

COZ001>005-013-030-031-301500-
...NORTHWEST COLORADO...

CITY           SKY/WX    TMP DP  RH WIND       PRES   REMARKS
CRAIG          SUNNY     52  47  83 CALM      30.17S
HAYDEN         SUNNY     52  43  71 E12       30.19S
MEEKER         MOSUNNY   51  43  74 CALM      30.20S
MOUNT WERNER   NOT AVBL
STEAMBOAT SPGS SUNNY     46  43  91 CALM      30.23S
WALDEN         SUNNY     43  37  81 SE6       30.28S
$$

COZ006>008-011-301500-
...WEST CENTRAL VALLEYS...

CITY           SKY/WX    TMP DP  RH WIND       PRES   REMARKS
GRAND JUNCTION MOSUNNY   61  47  59 SE10      30.10S
MONTROSE       SUNNY     57  44  62 SE3       30.22R
EAGLE          MOSUNNY   45  43  93 CALM      30.30R
RIFLE          MOSUNNY   54  47  77 SE7       30.17F
DELTA          SUNNY     60  47  60 E5        30.17S
NUCLA          MOSUNNY   55  41  58 SE8       30.22S
$$

COZ017>023-064>068-301500-
...SOUTHWEST COLORADO...

CITY           SKY/WX    TMP DP  RH WIND       PRES   REMARKS
DURANGO        SUNNY     51  41  68 CALM      30.26R
CORTEZ         SUNNY     54  44  69 CALM      30.20S
PAGOSA SPRINGS SUNNY     53  38  55 CALM      30.34R
TELLURIDE      NOT AVBL
WOLF CREEK PAS SUNNY     43  32  65 SW15G21   30.57S
$$

COZ009-010-012-014-032>034-037-058>063-301500-
...CENTRAL COLORADO...

CITY           SKY/WX    TMP DP  RH WIND       PRES   REMARKS
ASPEN          SUNNY     50  40  68 SW5       30.31R
BUENA VISTA    SUNNY     45  39  78 CALM      30.35S
COPPER MTN     SUNNY     46  32  57 SW7G16    30.55S
BERTHOUD PASS  FAIR      39  37  93 W18       30.57S
COTTONWOOD PAS SUNNY     50  36  57 SE5       30.43S
GUNNISON       SUNNY     43  37  81 E3        30.38S
KREMMLING      SUNNY     39  37  93 CALM      30.33S
LEADVILLE      SUNNY     38  35  89 CALM      30.42F
MONARCH PASS   SUNNY     41  32  70 W17       30.65S
SALIDA         SUNNY     50  40  68 NW3       30.40S
SUNLIGHT       MOSUNNY   46  39  76 CALM      30.49S
WILKERSON PASS NOT AVBL
$$

COZ069>075-301500-
...SAN LUIS VALLEY/SANGRE DE CRISTO MOUNTAINS...

CITY           SKY/WX    TMP DP  RH WIND       PRES   REMARKS
ALAMOSA        SUNNY     50  41  71 W3        30.33R
LA VETA PASS   NOT AVBL
SAGUACHE       NOT AVBL
$$

COZ035-036-038>040-301500-
...NORTHERN COLORADO FRONT RANGE...

CITY           SKY/WX    TMP DP  RH WIND       PRES   REMARKS
DENVER INTL AP MOSUNNY   62  44  51 S9        30.10S
DMNS CITY PARK   N/A     61  45  55 SW9       30.10S
AURORA         MOSUNNY   61  45  54 SW9       30.12S
FRONT RANGE AP NOT AVBL
ERIE MUNI ARPT SUNNY     53  50  87 CALM      30.09S
BOULDER MUN AP SUNNY     55  52  88 CALM      30.09S
CENTENNIAL     MOSUNNY   62  44  51 S3        30.13S
BROOMFIELD     MOSUNNY   57  48  72 W6        30.11F
FORT COLLINS   SUNNY     54  52  94 N3        30.10S
LONGMONT       SUNNY     56  50  81 CALM      30.10F
$$

COZ041-046-047-076>085-087-088-301500-
...PIKES PEAK/PALMER DIVIDE AND SOUTHERN FOOTHILLS...

CITY           SKY/WX    TMP DP  RH WIND       PRES   REMARKS
COLO. SPRINGS  MOSUNNY   60  47  61 E5        30.19S
A. F. ACADEMY  SUNNY     51  44  76 N6        30.20S
ELLICOTT       SUNNY     62  48  60 CALM      30.17S
FALCON         NOT AVBL
FORT CARSON    SUNNY     55  45  71 NW7       30.16S
LIMON          SUNNY     66  45  46 CALM      30.12S
MONUMENT HILL  SUNNY     55  43  62 S5        30.21S
TRINIDAD       MOSUNNY   64  46  52 SW10      30.17F
$$

COZ042>045-048>051-090-091-301500-
...NORTHEAST COLORADO...

CITY           SKY/WX    TMP DP  RH WIND       PRES   REMARKS
GREELEY ARPT   SUNNY     52  45  76 NW3       30.08S
AKRON          SUNNY     61  54  77 S9        30.06F
BURLINGTON     SUNNY     62  55  77 S5        30.07F
WRAY             N/A     62  58  88 CALM      30.04F
STERLING       SUNNY     61  59  94 CALM      30.03S
HOLYOKE        SUNNY     61  57  88 CALM      30.04F
FORT MORGAN    SUNNY     57  52  82 W6        30.06S
$$

COZ086-089-092>099-301500-
...SOUTHEAST COLORADO...

CITY           SKY/WX    TMP DP  RH WIND       PRES   REMARKS
PUEBLO         SUNNY     58  48  69 CALM      30.11S
LA JUNTA       SUNNY     63  52  67 CALM      30.09S
LAMAR          SUNNY     64  54  69 CALM      30.06F
SPRINGFIELD      N/A     63  55  75 CALM      30.11S
$$


USA.gov is the U.S. government's official web portal to all federal, state and local government web resources and services.